This is the latest recevied weather packets stored in our database for station/object HEBOWX. If no packets are shown the sender has not sent any weather packets the latest 10 day(s).
| Time | Temp. | Humidity | Pressure | Rain* | Wind** | Luminosity | Snow |
|---|---|---|---|---|---|---|---|
| 1777918227 | 16.67° C | 42% | 1010.4 hPa | 0 mm | - | - | - |
| 1777917927 | 16.67° C | 41% | 1010.3 hPa | 0 mm | - | - | - |
| 1777917626 | 16.67° C | 35% | 1010.3 hPa | 0 mm | - | - | - |
| 1777917328 | 16.67° C | 38% | 1010.3 hPa | 0 mm | - | - | - |
| 1777917026 | 16.67° C | 35% | 1010.2 hPa | 0 mm | - | - | - |
| 1777916728 | 16.67° C | 35% | 1010.2 hPa | 0 mm | - | - | - |
| 1777916426 | 16.67° C | 38% | 1010.3 hPa | 0 mm | - | - | - |
| 1777916127 | 16.67° C | 37% | 1010.3 hPa | 0 mm | - | - | - |
| 1777915826 | 16.67° C | 36% | 1010.3 hPa | 0 mm | - | - | - |
| 1777915526 | 16.67° C | 36% | 1010.3 hPa | 0 mm | - | - | - |
| 1777915228 | 16.67° C | 31% | 1010.3 hPa | 0 mm | - | - | - |
| 1777914926 | 16.67° C | 31% | 1010.2 hPa | 0 mm | - | - | - |
| 1777914626 | 16.67° C | 31% | 1010.2 hPa | 0 mm | - | - | - |
| 1777914326 | 16.67° C | 32% | 1010.1 hPa | 0 mm | - | - | - |
| 1777914026 | 16.67° C | 31% | 1010.1 hPa | 0 mm | - | - | - |
| 1777913726 | 16.67° C | 30% | 1010.1 hPa | 0 mm | - | - | - |
| 1777913426 | 16.67° C | 29% | 1010.1 hPa | 0 mm | - | - | - |
| 1777913126 | 16.67° C | 30% | 1010.1 hPa | 0 mm | - | - | - |
| 1777912826 | 16.67° C | 27% | 1009.9 hPa | 0 mm | - | - | - |
| 1777912527 | 16.67° C | 29% | 1009.9 hPa | 0 mm | - | - | - |
| 1777912226 | 16.67° C | 29% | 1010.1 hPa | 0 mm | - | - | - |
| 1777911926 | 16.67° C | 28% | 1009.9 hPa | 0 mm | - | - | - |
| 1777911626 | 16.67° C | 29% | 1009.9 hPa | 0 mm | - | - | - |
| 1777911329 | 16.67° C | 29% | 1009.9 hPa | 0 mm | - | - | - |
| 1777911026 | 16.67° C | 26% | 1009.9 hPa | 0 mm | - | - | - |
* Rain latest hour (hover to see other rain measurements)
** Current wind speed in m/s (hover to see current wind gust speed)